Regional Weather Roundup
Issued by NWS Grand Forks, ND

Home | Current Version | Previous Version | Text Only | Print | Product List | Glossary Off
Versions: 1 2 3 4 5 6 7 8 9 10 11 12 13 14 15 16 17 18 19 20 21 22 23 24 25 26 27 28 29 30 31 32 33 34 35 36 37 38 39 40 41 42 43 44 45 46 47 48 49 50

000
ASUS43 KFGF 222231
RWRFGF
PRAIRIE TO PINES  WEATHER ROUNDUP
NATIONAL WEATHER SERVICE EASTERN NORTH DAKOTA/GRAND FORKS ND
500 PM CDT FRI AUG 22 2014

 **SATELLITE DATA USED TO AUGMENT SKY COVER AT AUTOMATED STATIONS**
 *****  WEATHER ACROSS EASTERN NORTH DAKOTA  *****

CITY           SKY/WX    TMP DP  RH WIND       PRES   REMARKS
GRAND FORKS    PTSUNNY   73  64  73 N14       30.03S
GRAND FRKS AFB CLOUDY    70  66  88 NE12      30.05R
GRAND FRKS NWS   N/A     64 N/A N/A VRB9        N/A
DEVILS LAKE    CLOUDY    70  57  64 NE10      30.06S
FARGO          CLOUDY    72  66  81 N10       30.02R
WAHPETON ARPT  CLOUDY    75  64  69 N10       30.00R
$$

 ***** WEATHER ACROSS CENTRAL AND WESTERN NORTH DAKOTA  *****

CITY           SKY/WX    TMP DP  RH WIND       PRES   REMARKS
BISMARCK       CLOUDY    72  64  76 E13       30.05R
MINOT          CLOUDY    64  60  87 NE8       30.10S
JAMESTOWN      PTSUNNY   73  64  73 N9        30.04R
MINOT AFB      DRIZZLE   66  59  77 NE9       30.10S
GARRISON         N/A     66  61  84 NE9       30.09R
WILLISTON      CLOUDY    67  55  65 E14       30.11S
DICKINSON      CLOUDY    69  61  75 NE13      30.06S
HETTINGER      CLOUDY    72  58  61 E10       30.06F
$$

 *****  OTHER AIRPORT OBSERVATIONS IN OUR AREA  *****

CITY           SKY/WX    TMP DP  RH WIND       PRES   REMARKS
WALHALLA         N/A     68  63  83 N16       30.08R
GRAFTON AIRPOR CLOUDY    70  63  78 N12G17    30.04S
VALLEY CITY AR FAIR      73  68  83 N9        30.04R
CANDO          CLOUDY    66  59  77 N12       30.10S
CAVALIER APRT  CLOUDY    68  61  77 N12       30.07R
GWINNER        CLEAR     79  68  69 N8        30.02S
SHEYENNE NWR     N/A     76  67  74 N7        29.95
ROLLA          CLOUDY    64  61  88 N9        30.13S
 ***** THE ABOVE OBSERVATIONS ARE NON NWS ARE NOT QUALITY
       CONTROLLED AND MAY MIS-REPORT RAIN FOR SNOW...
$$

  *****  WEATHER ACROSS NORTHERN MINNESOTA  *****

CITY           SKY/WX    TMP DP  RH WIND       PRES   REMARKS
FLAG ISLAND    CLOUDY    70  63  78 CALM      30.03R
WARROAD        LGT RAIN  70  66  88 N5        30.04S
ROSEAU         LGT RAIN  70  63  78 NE7       30.03S
HALLOCK        CLOUDY    70  64  83 N10       30.04R
THF RVR FALLS  CLOUDY    73  66  78 NW12      30.02R
BAUDETTE       CLOUDY    72  67  84 N8        30.02R
WASKISH        CLOUDY    75  68  78 CALM      30.01R
CROOKSTON      CLOUDY    72  66  83 N13       30.03S
$$
  *****  WEATHER ACROSS CENTRAL AND WEST MINNESOTA  *****

CITY           SKY/WX    TMP DP  RH WIND       PRES   REMARKS
FOSSTON        CLOUDY    73  66  78 W5        30.02R
BEMIDJI        HVY RAIN  73  67  80 N3        30.00R
PARK RAPIDS    LGT RAIN  73  68  84 N12       30.00R
ELBOW LAKE     FAIR      77  69  75 NW9       29.99S
WADENA         CLOUDY    73  66  78 NE7       30.00R
DETROIT LAKES  PTSUNNY   73  66  78 NW9       30.04R
MOORHEAD       MOSUNNY   73  72  94 N10       30.02S
FERGUS FALLS   CLOUDY    75  66  73 N10       29.99R
MORRIS MN      MOSUNNY   82  66  57 NW5       29.98R
STAPLES        MOSUNNY   77  64  65 CALM      30.00R
$$
  *****  WEATHER ELSEWHERE ACROSS MINNESOTA  *****

CITY           SKY/WX    TMP DP  RH WIND       PRES   REMARKS
DULUTH         CLOUDY    66  61  84 SE5       30.02R
INTRNTL FALLS  CLOUDY    73  65  75 NE6       30.02R
ELY            CLOUDY    72  64  78 CALM      30.03R
CLOQUET        CLOUDY    66  63  88 SE3       30.03R
WHEATON        PTSUNNY   75  66  73 NW5       30.00S
BRAINERD       PTSUNNY   77  66  68 CALM      30.00R
HIBBING        CLOUDY    75  66  73 CALM      30.01R
ALEXANDRIA     MOSUNNY   81  66  60 NW7       30.00S
SAINT CLOUD    CLOUDY    79  68  69 N7        29.99S
MINNEAPOLIS    CLOUDY    78  68  71 NW9       29.97R
$$

  *****  WEATHER ACROSS SOUTH DAKOTA  *****

CITY           SKY/WX    TMP DP  RH WIND       PRES   REMARKS
SIOUX FALLS    PTSUNNY   85  68  56 E6        29.98R
BROOKINGS      NOT AVBL
WATERTOWN      PTSUNNY   79  67  66 E8        29.99S
HURON          CLOUDY    82  68  62 N16       29.96S
SISSETON         N/A     77  70  79 N6        29.98S
ABERDEEN       PTSUNNY   76  67  73 E6        30.01R
MITCHELL       CLOUDY    83  70  64 CALM      29.96S
PIERRE         PTSUNNY   79  65  62 E17       29.97S
MOBRIDGE       PTSUNNY   74  65  73 N9        30.01R
RAPID CITY     CLOUDY    75  60  59 E6        30.03F
$$

  *****  SOME WEATHER IN NEARBY STATES *****

CITY           SKY/WX    TMP DP  RH WIND       PRES   REMARKS
GLASGOW MT     CLOUDY    67  55  65 E17       30.09S
GREAT FALLS MT CLOUDY    57  52  83 N9        30.12S
CHEYENNE WY      N/A     70  52  52 S15G28    30.12F
SCOTTSBLUFF NE LGT RAIN  73  62  68 E17       30.03F
OMAHA NE       TSTM      79  76  90 S15       29.90F
DES MOINES IA  PTSUNNY   88  77  69 S7        29.90F HX 100
DAVENPORT IA   MOSUNNY   85  74  69 W6        29.93S HX  92
CHICAGO IL     PTSUNNY   86  70  58 SW5       29.92S HX  90
EAU CLAIRE WI  MOSUNNY   85  71  63 W8        29.92F HX  90
LA CROSSE WI   MOSUNNY   85  74  69 SE3       29.91S HX  92
$$

  *****  SOME NATIONAL WEATHER *****

CITY           SKY/WX    TMP DP  RH WIND       PRES   REMARKS
LA GUARDIA NY  CLOUDY    68  61  78 VRB5      30.03S
RALEIGH NC     PTSUNNY   83  73  72 SW3       29.97F
ATLANTA GA     MOSUNNY   92  70  48 N6        30.03F HX  97
NEW ORLEANS LA MOSUNNY   94  63  35 CALM      30.03F HX  95
OKLAHOMA CITY  MOSUNNY   99  62  29 S15G24    29.92F HX 100
ALBUQUERQUE NM PTSUNNY   69  56  62 N3        30.17F
SALT LAKE CITY LGT RAIN  68  58  70 NW25G32   29.95R
LOS ANGELES CA MOSUNNY   75  63  66 W12       29.95F
BOISE ID       MOSUNNY   79  32  18 NW10G18   29.87F
SEATTLE WA     MOSUNNY   74  53  48 NW14      30.07S
$$

*** WEATHER ACROSS MANITOBA...SASKATCHEWAN AND ONTARIO ***
                ***ONTARIO***

CITY           SKY/WX    TMP DP  RH WIND       PRES   REMARKS
GERALDTON      PTSUNNY   77  61  57 CALM      30.04R
THUNDER BAY    PTSUNNY   70  63  78 E7        30.03R
SIOUX LOOKOUT  CLOUDY    73  61  64 CALM      30.04R
TORONTO        MOSUNNY   75  64  69 SE8       29.98S
BIG TROUT LK   SUNNY     66  57  72 N8G18     30.07R
PICKLE LAKE    CLOUDY    75  57  53 S3        30.04R
DRYDEN         CLOUDY    72  63  73 CALM      30.05R
KENORA         CLOUDY    72  64  78 SW5       30.05R
$$
                *** MANITOBA***

CITY           SKY/WX    TMP DP  RH WIND       PRES   REMARKS
BRANDON        CLOUDY    64  57  77 N9        30.14R
DAUPHIN        CLOUDY    61  55  82 N14G20    30.19R
ISLAND LAKE    LGT RAIN N/A N/A N/A NE8         N/A
PILOT MOUND      N/A     64  57  77 N8          N/A
THE PAS        PTSUNNY   64  50  59 NE9G17    30.25R
THOMPSON       PTSUNNY   59  48  67 N12G18    30.27R
WINNIPEG       CLOUDY    66  59  77 N10G17    30.08R
LYNN LAKE      CLOUDY    55  45  67 MISG      30.35R
CHURCHILL      CLOUDY    50  43  76 NE15G21   30.35
GILLAM         PTSUNNY   54  46  76 NE15G21   30.28R
$$
                ***SASKATCHEWAN***

CITY           SKY/WX    TMP DP  RH WIND       PRES   REMARKS
ESTEVAN        CLOUDY    66  54  63 NE5       30.15R
KINDERSLEY     CLOUDY    59  41  51 NE12      30.27
LLOYDMINSTER   PTSUNNY   57  37  47 N8        30.33S
PRINCE ALBERT  PTSUNNY   63  54  72 N5        30.26S
REGINA         PTSUNNY   66  52  59 NE14G20   30.18R
YORKTON        CLOUDY    63  50  63 N14G20    30.21R
N. BATTLEFORD  CLOUDY    59  45  58 N8        30.31S
LA RONGE       PTSUNNY   63  46  55 NW8       30.30R
SASKATOON      PTSUNNY   63  46  55 N9        30.28S
SWIFT CURRENT  CLOUDY    61  54  77 MISG      30.19S
$$
NOTE: THESE ARE AUTOMATED STATIONS WITH LIMITED QUALITY CONTROL
      "FAIR" INDICATES FEW OR NO CLOUDS BELOW 12,000 FEET WITH NO
      SIGNIFICANT WEATHER AND/OR OBSTRUCTIONS TO VISIBILITY.
      SKY/WX - SKY CONDITION AND SIGNIFICANT WEATHER.
      TMP - AIR TEMPERATURE.    DP   - DEWPOINT TEMPERATURE.
      RH  - RELATIVE HUMIDITY.  PRES - PRESSURE.
      HX  - HEAT INDEX.         WCI  - WIND CHILL INDEX.
$



USA.gov is the U.S. government's official web portal to all federal, state and local government web resources and services.